This demonstration page uses our WeatherBlox Daily Observations layout. Learn more.

Left ArrowRight Arrow

Hourly Observations for June 2, 2017

Temp ( °F °C ) Dew Point ( °F °C ) Humidity (%) Winds ( mph kmh ) Pressure ( in mb ) Visibility ( mi km ) Precip ( " mm )
12:59 am 00:59 Mostly Cloudy 73 22.8 66 18.9 79 79 S 6 9 29.98 1015 10 16 0.00 0.00
1:59 am 01:59 Mostly Cloudy 72 22.2 66 18.9 82 82 SSW 5 7 29.97 1015 9 14 0.00 0.00
2:59 am 02:59 Mostly Cloudy 70 21.1 66 18.9 87 87 SW 5 7 29.97 1015 9 14 0.00 0.00
3:59 am 03:59 Mostly Cloudy 71 21.7 65 18.3 81 81 WSW 5 7 29.97 1015 9 14 0.00 0.00
4:59 am 04:59 Mostly Cloudy 71 21.7 62 16.7 73 73 NW 6 9 29.98 1015 10 16 0.00 0.00
5:59 am 05:59 Partly Cloudy 72 22.2 66 18.9 82 82 N 8 13 30.01 1016 8 13 0.00 0.00
6:59 am 06:59 Mostly Cloudy 72 22.2 60 15.6 66 66 NNE 9 15 30.02 1017 10 16 0.00 0.00
7:59 am 07:59 Partly Cloudy 75 23.9 58 14.4 55 55 NNE 10 17 30.03 1017 10 16 0.00 0.00
8:59 am 08:59 Partly Cloudy 77 25 56 13.3 48 48 NE 8 13 30.05 1018 10 16 0.00 0.00
9:59 am 09:59 Mostly Sunny 78 25.6 54 12.2 43 43 NNE 8 13 30.04 1017 10 16 0.00 0.00
10:59 am 10:59 Mostly Sunny 80 26.7 50 10 35 35 NNE 3 6 30.04 1017 10 16 0.00 0.00
11:59 am 11:59 Mostly Sunny 82 27.8 50 10 33 33 N 9 15 30.03 1017 10 16 0.00 0.00
12:59 pm 12:59 Mostly Sunny 82 27.8 49 9.4 32 32 NE 7 11 30.02 1017 10 16 0.00 0.00
1:59 pm 13:59 Mostly Sunny 82 27.8 49 9.4 32 32 NNE 9 15 30.01 1016 10 16 0.00 0.00
2:59 pm 14:59 Mostly Sunny 82 27.8 47 8.3 29 29 E 7 11 30.01 1016 10 16 0.00 0.00
3:59 pm 15:59 Mostly Sunny 83 28.3 48 8.9 30 30 NNE 6 9 29.99 1016 10 16 0.00 0.00
4:59 pm 16:59 Mostly Sunny 84 28.9 50 10 31 31 NE 6 9 29.99 1016 10 16 0.00 0.00
5:59 pm 17:59 Mostly Sunny 83 28.3 48 8.9 30 30 VRB 5 7 29.98 1015 10 16 0.00 0.00
6:59 pm 18:59 Mostly Sunny 82 27.8 48 8.9 31 31 W 5 7 29.99 1016 10 16 0.00 0.00
8:59 pm 20:59 Mostly Clear 75 23.9 52 11.1 45 45 SSE 6 9 30.01 1016 10 16 0.00 0.00
9:59 pm 21:59 Partly Cloudy 75 23.9 52 11.1 45 45 S 3 6 30.04 1017 10 16 0.00 0.00
10:59 pm 22:59 Mostly Clear 73 22.8 51 10.6 46 46 Calm 30.06 1018 10 16 0.00 0.00
11:59 pm 23:59 Mostly Clear 67 19.4 54 12.2 63 63 Calm 30.06 1018 10 16 0.00 0.00

Powered by AerisWeather